TimeCST,TemperatureF,Dew PointF,Humidity,Sea Level PressureIn,VisibilityMPH,Wind Direction,Wind SpeedMPH,Gust SpeedMPH,PrecipitationIn,Events,Conditions,WindDirDegrees,DateUTC
12:53 AM,-7.1,-11.9,79,29.86,10.0,Calm,Calm,-,N/A,,Clear,0,2014-01-18 06:53:00
1:53 AM,-4.0,-9.0,79,29.82,10.0,Calm,Calm,-,N/A,,Mostly Cloudy,0,2014-01-18 07:53:00
2:53 AM,3.0,-2.9,76,29.80,10.0,SE,4.6,-,N/A,,Overcast,140,2014-01-18 08:53:00
3:53 AM,5.0,-2.0,73,29.79,10.0,SE,5.8,-,N/A,,Overcast,130,2014-01-18 09:53:00
4:53 AM,3.9,-2.9,73,29.79,10.0,East,3.5,-,N/A,,Overcast,100,2014-01-18 10:53:00
5:53 AM,3.9,-2.9,73,29.78,10.0,East,3.5,-,N/A,,Overcast,80,2014-01-18 11:53:00
6:53 AM,3.0,-4.0,73,29.81,10.0,Variable,5.8,-,N/A,,Overcast,0,2014-01-18 12:53:00
7:53 AM,3.0,-2.9,76,29.83,10.0,NE,5.8,-,N/A,,Overcast,50,2014-01-18 13:53:00
8:53 AM,5.0,-0.9,76,29.87,10.0,ENE,6.9,-,N/A,,Overcast,60,2014-01-18 14:53:00
9:53 AM,8.1,1.9,76,29.90,10.0,East,5.8,-,N/A,,Overcast,90,2014-01-18 15:53:00
10:53 AM,12.0,3.9,70,29.92,10.0,Variable,6.9,-,N/A,,Clear,0,2014-01-18 16:53:00
11:53 AM,17.1,6.1,62,29.91,10.0,Calm,Calm,-,N/A,,Clear,0,2014-01-18 17:53:00
12:53 PM,18.0,6.1,60,29.91,10.0,Calm,Calm,-,N/A,,Clear,0,2014-01-18 18:53:00
1:53 PM,19.0,6.1,57,29.90,10.0,Calm,Calm,-,N/A,,Clear,0,2014-01-18 19:53:00
2:53 PM,21.0,5.0,50,29.88,10.0,Variable,3.5,-,N/A,,Clear,0,2014-01-18 20:53:00
3:53 PM,21.0,5.0,50,29.89,10.0,WSW,5.8,-,N/A,,Clear,240,2014-01-18 21:53:00
4:53 PM,17.1,3.0,54,29.91,10.0,Calm,Calm,-,N/A,,Clear,0,2014-01-18 22:53:00
5:53 PM,15.1,1.9,56,29.91,10.0,SW,3.5,-,N/A,,Clear,220,2014-01-18 23:53:00
6:53 PM,15.1,3.0,59,29.88,10.0,SSW,4.6,-,N/A,,Clear,200,2014-01-19 00:53:00
7:53 PM,16.0,5.0,62,29.84,10.0,Variable,3.5,-,N/A,,Overcast,0,2014-01-19 01:53:00
8:53 PM,17.1,8.1,68,29.80,5.0,Variable,5.8,-,0.00,Snow,Light Snow,0,2014-01-19 02:53:00
9:53 PM,18.0,9.0,68,29.74,10.0,SSW,8.1,-,0.00,,Overcast,210,2014-01-19 03:53:00
10:53 PM,19.0,10.9,71,29.70,10.0,Variable,5.8,-,N/A,,Overcast,0,2014-01-19 04:53:00
11:01 PM,19.0,10.9,71,29.63,10.0,SW,8.1,-,N/A,,Overcast,220,2014-01-19 05:01:00
11:53 PM,19.0,12.0,74,29.66,10.0,SW,8.1,-,N/A,,Overcast,220,2014-01-19 05:53:00